Location: Hlohovi?ky
(49.8934°N, 13.6739°E)
Time: 07:01:01
(UTC+00:00)

Cosmos 2082 Rocket - Pass Details

Date: 19 May 2025
Orbit: 831 x 853 km, 71.0° (Epoch: 22 June)

Event Time Altitude Azimuth Distance (km) Brightness Sun altitude
Exits shadow 23:23:28 - 254° (WSW) 3,277 5.1 -20.0°
Reaches altitude 10° 23:26:07 10° 267° (W) 2,444 4.5 -19.9°
Maximum altitude 23:30:33 23° 319° (NW) 1,698 4.2 -19.8°
Drops below altitude 10° 23:35:00 10° 12° (NNE) 2,461 5.8 -19.7°
Sets 23:37:59 0° 27° (NNE) 3,402 6.7 -19.7°
